Regional Weather Roundup
Issued by NWS

Home | Current Version | Previous Version | Text Only | Print | Product List | Glossary On
Versions: 1 2 3 4 5 6 7 8 9 10 11 12 13 14 15 16 17 18 19 20 21 22 23 24 25 26 27 28 29 30 31 32 33 34 35 36 37 38 39 40 41 42 43 44 45 46 47 48 49 50
000
ASUS44 KOUN 291310
RWROK

WEATHER ROUNDUP FOR OKLAHOMA
NATIONAL WEATHER SERVICE NORMAN OK
800 AM CDT SUN MAR 29 2015

NOTE: "FAIR" INDICATES FEW OR NO CLOUDS BELOW 12,000 FEET WITH NO
      SIGNIFICANT WEATHER AND/OR OBSTRUCTIONS TO VISIBILITY.

OKZ001>007-009>012-014-015-017-291400-
NORTHWEST OKLAHOMA AND THE PANHANDLE

CITY           SKY/WX    TMP DP  RH WIND       PRES   REMARKS
GAGE           CLEAR     49  45  86 SW8       29.92R
GUYMON         CLEAR     57  32  38 N16       30.01R
ENID/WOODRING  PTCLDY    45  43  93 SE8       29.91R
$$

OKZ016-021>023-033>039-044-045-291400-
SOUTHWEST OKLAHOMA

CITY           SKY/WX    TMP DP  RH WIND       PRES   REMARKS
LAWTON/REGL    CLEAR     53  47  79 SE10      29.96R
LAWTON/FT SILL CLEAR     51  48  89 S10       29.94R
FREDERICK      CLEAR     49  43  80 E9        29.92R
CLINTON        CLEAR     51  45  79 S10       29.93R
HOBART         FAIR      49  45  86 S10       29.93R
ALTUS AFB      CLEAR     46  46 100 SE7       29.93R
$$

OKZ018>020-024>031-291400-
CENTRAL OKLAHOMA

CITY           SKY/WX    TMP DP  RH WIND       PRES   REMARKS
OKLAHOMA CITY  PTCLDY    49  43  80 S16       29.95R
OKC/WILEY POST CLEAR     50  44  80 S18       29.94R
OKC/TINKER AFB CLEAR     49  43  80 S16       29.94R
STILLWATER     CLEAR     48  41  76 S14       29.94R
GUTHRIE        CLEAR     50  42  74 S9        29.94R
$$

OKZ008-013-054>072-291400-
NORTHEAST OKLAHOMA

CITY           SKY/WX    TMP DP  RH WIND       PRES   REMARKS
TULSA          CLEAR     43  36  76 S18G24    29.98S
TULSA/JONES    CLEAR     42  35  76 S12       30.00S
PONCA CITY     CLEAR     49  42  77 S14G24    29.91S
BARTLESVILLE   CLEAR     42  36  79 S13G21    29.97S
MUSKOGEE       CLEAR     41  35  79 SE15      30.04R
$$

OKZ032-040>043-046>053-073>077-291400-
SOUTH CENTRAL/SOUTHEAST OKLAHOMA

CITY           SKY/WX    TMP DP  RH WIND       PRES   REMARKS
ARDMORE/DWNTWN CLEAR     48  43  81 SE8       30.02R
MCALESTER      CLEAR     49  37  63 VRB6      30.03R
$$



USA.gov is the U.S. government's official web portal to all federal, state and local government web resources and services.